KLM91P EHAM-EDDH

Flight info

Callsign KLM91P
Flight time N/A
Altitude 35000
Route ANDIK M105 RIBSO RIBSO7A
Aircraft E190/M-SDE3GILORVW/S

Departure

Time 2026-04-28 15:40
Airport Amsterdam Airport Schiphol (EHAM)

Arrival

Time N/A
Airport Hamburg Helmut Schmidt Airport (EDDH)
Time Latitude Longitude Altitude Speed Heading
2026-04-28 15:07 52.29960 4.75455 -2 ft 0 kts 58°
2026-04-28 15:31 52.29962 4.75460 -2 ft 1 kts 58°
2026-04-28 15:31 52.29971 4.75498 -2 ft 4 kts 83°
2026-04-28 15:31 52.29960 4.75535 -2 ft 3 kts 126°
2026-04-28 15:31 52.29955 4.75544 -2 ft 1 kts 131°
2026-04-28 15:32 52.29947 4.75559 -2 ft 1 kts 129°
2026-04-28 15:32 52.29944 4.75565 -2 ft 0 kts 133°
2026-04-28 15:32 52.29936 4.75563 -2 ft 3 kts 183°
2026-04-28 15:32 52.29903 4.75502 -2 ft 10 kts 237°
2026-04-28 15:33 52.29859 4.75381 -1 ft 13 kts 239°
2026-04-28 15:33 52.29835 4.75240 0 ft 14 kts 278°
2026-04-28 15:33 52.29901 4.75081 -2 ft 20 kts 310°
2026-04-28 15:33 52.29993 4.74914 0 ft 20 kts 311°
2026-04-28 15:34 52.30087 4.74738 5 ft 20 kts 311°
2026-04-28 15:34 52.30146 4.74629 2 ft 14 kts 310°
2026-04-28 15:34 52.30209 4.74509 7 ft 14 kts 312°
2026-04-28 15:34 52.30284 4.74370 5 ft 15 kts 310°
2026-04-28 15:35 52.30369 4.74230 1 ft 19 kts 322°
2026-04-28 15:35 52.30642 4.74208 -5 ft 22 kts
2026-04-28 15:35 52.30778 4.74221 -5 ft 22 kts
2026-04-28 15:36 52.30937 4.74235 -8 ft 24 kts
2026-04-28 15:36 52.31087 4.74250 -5 ft 17 kts
2026-04-28 15:36 52.31186 4.74260 -6 ft 11 kts
2026-04-28 15:36 52.31277 4.74268 -4 ft 13 kts
2026-04-28 15:37 52.31357 4.74282 -1 ft 11 kts 19°
2026-04-28 15:37 52.31395 4.74404 -2 ft 14 kts 86°
2026-04-28 15:37 52.31401 4.74562 -2 ft 14 kts 86°
2026-04-28 15:37 52.31420 4.74650 -1 ft 10 kts 45°
2026-04-28 15:38 52.31522 4.74665 -2 ft 12 kts 356°
2026-04-28 15:38 52.31571 4.74660 -2 ft 5 kts 356°
2026-04-28 15:38 52.31614 4.74660 -2 ft 8 kts
2026-04-28 15:38 52.31663 4.74724 -1 ft 11 kts 66°
2026-04-28 15:39 52.31674 4.74889 -5 ft 20 kts 87°
2026-04-28 15:39 52.31692 4.75427 -8 ft 79 kts 86°
2026-04-28 15:39 52.31733 4.76667 -4 ft 137 kts 86°
2026-04-28 15:39 52.31797 4.78519 46 ft 183 kts 87°
2026-04-28 15:40 52.31888 4.80657 634 ft 198 kts 86°
2026-04-28 15:40 52.32007 4.82971 1352 ft 208 kts 86°
2026-04-28 15:40 52.32136 4.85350 2108 ft 210 kts 85°
2026-04-28 15:40 52.32292 4.87782 2731 ft 220 kts 84°
2026-04-28 15:41 52.32530 4.90278 3379 ft 228 kts 74°
2026-04-28 15:41 52.32931 4.91971 3680 ft 245 kts 65°
2026-04-28 15:41 52.33749 4.94546 4044 ft 271 kts 55°
2026-04-28 15:41 52.34992 4.96912 4888 ft 275 kts 47°
2026-04-28 15:42 52.36276 4.99259 5774 ft 280 kts 50°
2026-04-28 15:42 52.37475 5.01733 6714 ft 277 kts 53°
2026-04-28 15:42 52.38625 5.04282 7508 ft 281 kts 54°
2026-04-28 15:42 52.39779 5.06893 8241 ft 285 kts 54°
2026-04-28 15:43 52.40948 5.09548 8977 ft 289 kts 54°
2026-04-28 15:43 52.42188 5.12169 9688 ft 293 kts 44°
2026-04-28 15:43 52.43930 5.13912 10251 ft 302 kts 19°
2026-04-28 15:43 52.45997 5.14892 10662 ft 316 kts 14°
2026-04-28 15:44 52.48095 5.16059 11278 ft 324 kts 30°
2026-04-28 15:44 52.49703 5.18581 11883 ft 329 kts 59°
2026-04-28 15:44 52.50398 5.22122 12644 ft 330 kts 86°
2026-04-28 15:44 52.50386 5.25900 13473 ft 331 kts 91°
2026-04-28 15:45 52.50453 5.29698 14238 ft 335 kts 84°
2026-04-28 15:45 52.50833 5.33497 15014 ft 340 kts 76°
2026-04-28 15:45 52.51589 5.37242 15799 ft 344 kts 67°
2026-04-28 15:45 52.52596 5.40765 16499 ft 348 kts 63°
2026-04-28 15:46 52.53749 5.44283 17182 ft 352 kts 61°
2026-04-28 15:46 52.54963 5.47797 17841 ft 355 kts 60°
2026-04-28 15:46 52.56208 5.51340 18491 ft 359 kts 60°
2026-04-28 15:46 52.57471 5.54908 19139 ft 363 kts 60°
2026-04-28 15:47 52.58749 5.58523 19784 ft 366 kts 60°
2026-04-28 15:47 52.60034 5.62156 20417 ft 370 kts 60°
2026-04-28 15:47 52.61333 5.65834 21026 ft 373 kts 60°
2026-04-28 15:47 52.62645 5.69554 21598 ft 377 kts 60°
2026-04-28 15:48 52.63965 5.73305 22136 ft 380 kts 60°
2026-04-28 15:48 52.65294 5.77087 22647 ft 383 kts 60°
2026-04-28 15:48 52.66632 5.80897 23140 ft 386 kts 60°
2026-04-28 15:48 52.67982 5.84754 23618 ft 389 kts 60°
2026-04-28 15:49 52.69338 5.88631 24076 ft 392 kts 60°
2026-04-28 15:49 52.70690 5.92499 24514 ft 395 kts 60°
2026-04-28 15:49 52.72063 5.96437 24930 ft 397 kts 60°
2026-04-28 15:49 52.73443 6.00401 25171 ft 402 kts 60°
2026-04-28 15:50 52.74823 6.04373 25153 ft 393 kts 60°
2026-04-28 15:50 52.76155 6.08209 25054 ft 379 kts 60°
2026-04-28 15:50 52.77466 6.11992 24996 ft 381 kts 60°
2026-04-28 15:50 52.78803 6.15853 25051 ft 393 kts 60°
2026-04-28 15:51 52.80169 6.19811 25054 ft 397 kts 60°
2026-04-28 15:51 52.81544 6.23794 24989 ft 397 kts 60°
2026-04-28 15:51 52.82914 6.27767 24995 ft 397 kts 60°
2026-04-28 15:51 52.84266 6.31697 24995 ft 398 kts 60°
2026-04-28 15:52 52.85628 6.35665 25001 ft 398 kts 60°
2026-04-28 15:52 52.86998 6.39659 24991 ft 398 kts 60°
2026-04-28 15:52 52.88363 6.43645 24998 ft 398 kts 60°
2026-04-28 15:52 52.89725 6.47638 24999 ft 398 kts 60°
2026-04-28 15:53 52.91089 6.51637 25000 ft 398 kts 60°
2026-04-28 15:53 52.92451 6.55639 25004 ft 398 kts 60°
2026-04-28 15:53 52.93809 6.59634 25004 ft 398 kts 60°
2026-04-28 15:53 52.95169 6.63642 24995 ft 398 kts 60°
2026-04-28 15:54 52.96525 6.67640 25003 ft 398 kts 60°
2026-04-28 15:54 52.97882 6.71648 25004 ft 398 kts 61°
2026-04-28 15:54 52.99237 6.75658 25000 ft 398 kts 61°
2026-04-28 15:54 53.00589 6.79668 24998 ft 398 kts 61°
2026-04-28 15:55 53.01942 6.83687 25006 ft 398 kts 61°
2026-04-28 15:55 53.03274 6.87650 25003 ft 398 kts 61°
2026-04-28 15:55 53.04614 6.91645 25006 ft 398 kts 61°
2026-04-28 15:55 53.05966 6.95676 25003 ft 398 kts 61°
2026-04-28 15:56 53.07311 6.99695 25005 ft 398 kts 61°
2026-04-28 15:56 53.08658 7.03729 25002 ft 398 kts 61°
2026-04-28 15:56 53.10002 7.07763 24997 ft 398 kts 61°
2026-04-28 15:56 53.11343 7.11792 25003 ft 398 kts 61°
2026-04-28 15:57 53.12685 7.15827 25008 ft 398 kts 61°
2026-04-28 15:57 53.13852 7.19939 25025 ft 398 kts 69°
2026-04-28 15:57 53.14769 7.24302 25024 ft 398 kts 72°
2026-04-28 15:57 53.15617 7.28690 24992 ft 398 kts 72°
2026-04-28 15:58 53.16475 7.33076 25000 ft 398 kts 72°
2026-04-28 15:58 53.17344 7.37461 25002 ft 398 kts 72°
2026-04-28 15:58 53.18198 7.41849 24998 ft 398 kts 72°
2026-04-28 15:58 53.19047 7.46240 24996 ft 398 kts 72°
2026-04-28 15:59 53.19897 7.50647 25002 ft 398 kts 72°
2026-04-28 15:59 53.20738 7.54993 25006 ft 398 kts 72°
2026-04-28 15:59 53.21589 7.59395 25006 ft 398 kts 72°
2026-04-28 15:59 53.22435 7.63781 25002 ft 398 kts 72°
2026-04-28 16:00 53.23292 7.68241 24996 ft 398 kts 72°
2026-04-28 16:00 53.24137 7.72640 25005 ft 398 kts 72°
2026-04-28 16:00 53.24452 7.74278 25000 ft 398 kts 72°
2026-04-28 16:00 53.24675 7.75442 24995 ft 397 kts 72°
2026-04-28 16:01 53.25515 7.79835 25001 ft 398 kts 72°
2026-04-28 16:01 53.26346 7.84184 25001 ft 398 kts 72°
2026-04-28 16:01 53.27194 7.88638 25000 ft 398 kts 72°
2026-04-28 16:01 53.28031 7.93051 24999 ft 398 kts 72°
2026-04-28 16:02 53.28856 7.97402 25001 ft 398 kts 72°
2026-04-28 16:02 53.29700 8.01857 25003 ft 398 kts 72°
2026-04-28 16:02 53.30521 8.06211 24997 ft 398 kts 72°
2026-04-28 16:02 53.31351 8.10625 24999 ft 398 kts 72°
2026-04-28 16:03 53.32180 8.15038 24949 ft 399 kts 73°
2026-04-28 16:03 53.33026 8.19470 24654 ft 400 kts 71°
2026-04-28 16:03 53.34020 8.23789 24419 ft 395 kts 68°
2026-04-28 16:03 53.35047 8.28032 24193 ft 393 kts 68°
2026-04-28 16:04 53.36057 8.32284 23942 ft 392 kts 69°
2026-04-28 16:04 53.37050 8.36531 23692 ft 390 kts 69°
2026-04-28 16:04 53.38030 8.40767 23449 ft 388 kts 69°
2026-04-28 16:04 53.38985 8.44911 23168 ft 376 kts 69°
2026-04-28 16:05 53.39980 8.48888 22904 ft 365 kts 62°
2026-04-28 16:05 53.41217 8.52534 22683 ft 354 kts 60°
2026-04-28 16:05 53.42359 8.56074 22419 ft 344 kts 63°
2026-04-28 16:05 53.43385 8.59647 22169 ft 335 kts 65°
2026-04-28 16:06 53.44328 8.63163 21917 ft 326 kts 66°
2026-04-28 16:06 53.45222 8.66615 21667 ft 318 kts 67°
2026-04-28 16:06 53.46083 8.69984 21412 ft 310 kts 68°
2026-04-28 16:06 53.46589 8.73502 20590 ft 315 kts 92°
2026-04-28 16:07 53.46076 8.77059 19590 ft 318 kts 118°
2026-04-28 16:07 53.44876 8.80192 18653 ft 321 kts 127°
2026-04-28 16:07 53.42152 8.86237 16604 ft 329 kts 126°
2026-04-28 16:08 53.40920 8.89502 15485 ft 334 kts 117°
2026-04-28 16:08 53.40026 8.93118 14298 ft 338 kts 107°
2026-04-28 16:08 53.39484 8.96965 13342 ft 336 kts 98°
2026-04-28 16:09 53.39402 9.04305 12590 ft 299 kts 86°
2026-04-28 16:09 53.39580 9.07690 12207 ft 285 kts 84°
2026-04-28 16:09 53.39791 9.10925 11844 ft 272 kts 84°
2026-04-28 16:10 53.40223 9.16964 11153 ft 250 kts 83°
2026-04-28 16:10 53.40428 9.19791 10823 ft 239 kts 83°
2026-04-28 16:10 53.40816 9.25129 10264 ft 224 kts 83°
2026-04-28 16:11 53.41178 9.30203 9750 ft 218 kts 87°
2026-04-28 16:11 53.40449 9.34963 9155 ft 212 kts 128°
2026-04-28 16:12 53.38314 9.38316 8623 ft 212 kts 139°
2026-04-28 16:12 53.37280 9.40091 8289 ft 214 kts 125°
2026-04-28 16:13 53.36569 9.44814 7876 ft 215 kts 82°
2026-04-28 16:13 53.37032 9.47133 7719 ft 208 kts 60°
2026-04-28 16:13 53.39021 9.50483 7121 ft 200 kts 48°
2026-04-28 16:14 53.40746 9.54069 6504 ft 198 kts 49°
2026-04-28 16:14 53.42533 9.57553 5876 ft 196 kts 51°
2026-04-28 16:15 53.44147 9.61126 5313 ft 189 kts 50°
2026-04-28 16:15 53.45069 9.62680 5044 ft 187 kts 43°
2026-04-28 16:15 53.45919 9.64247 4788 ft 184 kts 52°
2026-04-28 16:16 53.47448 9.67631 4155 ft 182 kts 66°
2026-04-28 16:16 53.47692 9.69796 3485 ft 194 kts 89°
2026-04-28 16:17 53.48872 9.73967 2322 ft 207 kts 49°
2026-04-28 16:17 53.49846 9.75305 2664 ft 170 kts 16°
2026-04-28 16:17 53.50966 9.74930 2459 ft 169 kts 312°
2026-04-28 16:17 53.51210 9.73181 2219 ft 158 kts 242°
2026-04-28 16:18 53.50338 9.72282 1999 ft 156 kts 170°